Location: Jugowa
(50.9500°N, 16.2500°E)
Time: 01:05:21
(UTC+00:00)

Daily predictions for brighter satellites

Satellite Brightness Start Highest point End
(mag) Time Altitude Azimuth Time Altitude Azimuth Time Altitude Azimuth
STARLINK-1212 2.7 00:00:13 10° WNW 00:03:19 75° SSW 00:06:25 10° ESE
STARLINK-1105 2.7 00:00:42 10° WNW 00:03:48 75° SSW 00:06:53 10° ESE
STARLINK-1209 2.8 00:00:57 10° WNW 00:04:04 59° SSW 00:06:55 12° SE
STARLINK-1247 2.7 00:01:36 10° WNW 00:04:44 74° SSW 00:07:50 10° ESE
STARLINK-1227 2.7 00:02:04 10° WNW 00:05:10 73° SSW 00:08:15 10° ESE
STARLINK-1208 3.7 00:01:03 10° WNW 00:05:13 77° NNE 00:09:23 10° E
ATLAS CENTAUR R/B 1.5 00:02:58 10° NW 00:05:14 68° NNE 00:09:40 10° ESE
STARLINK-1226 2.7 00:02:55 10° WNW 00:06:02 73° SSW 00:09:08 10° ESE
STARLINK-1215 2.7 00:03:52 10° WNW 00:06:59 72° SSW 00:10:05 10° ESE
STARLINK-1225 4.0 00:03:13 10° W 00:07:21 65° N 00:11:29 10° E
Nadezhda 2 Rocket 4.5 00:04:33 25° SSW 00:08:19 73° W 00:14:29 10° N
STARLINK-1217 2.7 00:05:38 10° WNW 00:08:44 70° SSW 00:11:51 10° ESE
STARLINK-1229 2.7 00:06:33 10° WNW 00:09:40 69° SSW 00:12:46 10° ESE
Cosmos 1726 4.3 00:08:08 10° NW 00:10:02 14° W 00:10:54 13° W
STARLINK-1271 3.7 00:06:03 10° WNW 00:10:13 79° NNE 00:14:23 10° ESE
GEOS 3 Rocket 4.0 00:07:38 24° S 00:10:17 42° WSW 00:15:18 10° NW
STARLINK-1270 2.7 00:07:25 10° WNW 00:10:32 69° SSW 00:13:39 10° ESE
Cosmos 2058 Rocket 3.2 00:07:14 10° NNW 00:11:35 60° W 00:13:46 28° SSW
Lacrosse 4 Rocket 4.3 00:08:27 10° NNW 00:11:48 21° NE 00:15:04 10° E
Meteor 1-29 3.4 00:08:58 10° N 00:12:16 50° WNW 00:13:32 31° SW
STARLINK-1230 4.0 00:08:12 10° W 00:12:19 64° N 00:16:28 10° E
STARLINK-1189 2.7 00:09:15 10° WNW 00:12:22 67° SSW 00:15:28 10° ESE
STARLINK-1188 2.7 00:10:08 10° WNW 00:13:15 66° SSW 00:16:20 10° ESE
STARLINK-1235 2.8 00:10:51 10° WNW 00:13:54 55° SSW 00:16:56 10° SE
Cosmos 2228 4.1 00:10:13 10° NNW 00:13:59 31° W 00:15:32 24° SW
STARLINK-1187 2.8 00:11:15 10° WNW 00:14:19 60° SSW 00:17:23 10° SE
STARLINK-1154 3.7 00:11:02 10° WNW 00:15:13 82° NNE 00:19:23 10° ESE
COSMOS 2455 2.8 00:11:40 23° SSW 00:15:35 88° SE 00:21:40 10° NE
STARLINK-1191 2.7 00:12:37 10° WNW 00:15:42 64° SSW 00:18:47 10° ESE
SJ 16-02 2.8 00:11:35 10° N 00:15:44 37° ENE 00:19:52 10° SE
STARLINK-1221 2.7 00:13:29 10° WNW 00:16:35 63° SSW 00:19:39 10° ESE
STARLINK-1243 4.0 00:13:11 10° W 00:17:19 64° N 00:21:27 10° E
STARLINK-1222 2.7 00:14:23 10° WNW 00:17:28 62° SSW 00:20:32 10° ESE
STARLINK-1214 2.7 00:15:18 10° WNW 00:18:22 61° SSW 00:21:26 10° SE
Starlink 7 placeholder 3.8 00:19:27 21° E 00:19:27 21° E 00:20:23 10° E
STARLINK-1197 3.6 00:16:01 10° WNW 00:20:11 84° NNE 00:24:21 10° ESE
SL-14 R/B 3.2 00:18:39 30° SSW 00:20:27 75° WNW 00:24:19 10° N
STARLINK-1236 4.0 00:18:11 10° W 00:22:19 64° N 00:26:27 10° E
Cosmos 1300 2.9 00:19:37 10° NNW 00:23:23 56° W 00:25:04 29° SSW
Okean 1-7 Rocket 3.8 00:22:03 26° SSW 00:24:26 62° WNW 00:28:56 10° N
Cosmos 1174 3.4 00:23:33 31° SW 00:24:58 79° NW 00:28:46 10° NE
STARLINK-1198 3.6 00:20:58 10° WNW 00:25:09 87° NNE 00:29:19 10° ESE
Cosmos 921 Rocket 3.1 00:23:34 26° S 00:25:53 68° ESE 00:30:10 10° NNE
BREEZE M DEB (TANK) 2.1 00:26:49 43° SSW 00:27:01 45° SSW 00:30:21 10° ESE
COSMOS 2487 4.2 00:24:48 10° WNW 00:27:07 17° W 00:27:18 17° WSW
STARLINK-1199 3.6 00:25:59 10° WNW 00:30:10 90° SSW 00:34:20 10° ESE
Meteor 2-16 Rocket 4.4 00:27:43 21° SSW 00:32:00 82° W 00:38:11 10° N
Cosmos 1626 Rocket 3.6 00:29:36 23° S 00:32:16 73° E 00:36:36 10° NNE
STARLINK-1269 4.0 00:28:09 10° W 00:32:17 65° N 00:36:25 10° E
Cosmos 2219 3.2 00:26:54 10° NNW 00:32:39 84° ENE 00:38:18 10° SSE
STARLINK-1210 3.5 00:30:58 10° WNW 00:35:07 87° SSW 00:39:17 10° ESE
Cosmos 1626 2.6 00:34:31 26° SW 00:36:16 47° WNW 00:39:53 10° N
STARLINK-1200 4.0 00:33:10 10° W 00:37:18 65° N 00:41:26 10° E
STARLINK-60 3.0 00:36:27 31° SW 00:37:41 58° SSE 00:40:53 10° ENE
STARLINK-1219 3.5 00:35:57 10° WNW 00:40:06 83° SSW 00:44:16 10° ESE
Nadezhda 1 Rocket 4.0 00:34:43 10° NNW 00:40:50 70° W 00:45:52 16° S
STARLINK-1192 4.0 00:38:09 10° WNW 00:42:17 66° N 00:46:26 10° E
FALCON 9 R/B 4.1 00:38:25 18° SW 00:43:26 33° SSE 01:02:29 10° ESE
STARLINK-1211 3.5 00:40:54 10° WNW 00:45:04 80° SSW 00:49:13 10° ESE
MOZ.5/SAFIR/RUBIN 5/SL-8 4.0 00:44:15 20° SSW 00:47:13 50° W 00:51:45 10° NNW
STARLINK-1244 4.0 00:43:07 10° WNW 00:47:16 66° N 00:51:24 10° E
UNK 3.8 00:44:01 18° S 00:47:27 65° WSW 00:52:03 10° NNW
Cosmos 2297 Rocket 2.2 00:42:36 10° NNW 00:48:18 89° ENE 00:53:58 10° SSE
Cosmos 220 Rocket 4.0 00:46:16 22° SSW 00:49:06 82° ESE 00:53:34 10° NNE
AQUA 4.2 00:44:43 10° NNE 00:49:26 59° E 00:53:18 15° S
ERBS 4.4 00:47:03 10° NW 00:50:03 30° N 00:53:03 10° ENE
STARLINK-1245 3.5 00:45:54 10° WNW 00:50:03 76° SSW 00:54:12 10° ESE
Cosmos 1812 Rocket 3.5 00:46:21 10° NNW 00:50:51 78° W 00:54:30 15° S
CZ-4B R/B 3.8 00:45:51 10° NNE 00:50:58 65° ESE 00:55:16 15° S
ERS-2 4.5 00:48:44 10° ESE 00:51:44 24° ENE 00:54:45 10° N
Cosmos 2082 4.4 00:46:15 10° NNW 00:51:51 56° NE 00:57:23 10° SE
STARLINK-1138 4.0 00:48:07 10° WNW 00:52:15 67° N 00:56:24 10° E
SL-4 R/B 2.4 00:49:12 17° SW 00:52:52 65° SSE 00:57:30 10° ENE
Cosmos 1437 3.2 00:52:48 25° SW 00:54:07 42° WNW 00:57:01 10° N
STARLINK-1203 4.0 00:50:43 10° WNW 00:54:54 68° N 00:59:07 10° E
STARLINK-1233 3.5 00:50:53 10° WNW 00:55:02 73° SSW 00:59:09 10° ESE
Cosmos 990 Rocket 4.2 00:50:46 10° NNW 00:56:04 78° ENE 01:01:20 10° SSE
STARLINK-1143 4.0 00:53:06 10° WNW 00:57:15 68° N 01:01:24 10° E
STARLINK-1204 3.5 00:55:52 10° WNW 01:00:01 69° SSW 01:04:08 10° ESE
ATLAS CENTAUR R/B 1.9 00:56:56 15° WSW 01:00:20 53° NW 01:04:21 10° NE
SL-16 R/B 2.7 00:56:01 14° S 01:01:17 54° W 01:07:21 10° NNW
Alouette 2 Rocket 4.3 00:54:52 10° NNW 01:02:03 88° ENE 01:06:39 10° SSE
STARLINK-1241 3.9 00:58:05 10° WNW 01:02:14 70° N 01:06:23 10° E
NOSS 3-4 (A) 4.1 00:57:40 10° WSW 01:03:35 52° NW 01:10:00 10° NE
BREEZE-M R/B 3.3 01:01:07 19° SW 01:03:36 35° SSE 01:06:16 10° E
NOSS 3-4 (C) 4.1 00:57:45 10° WSW 01:03:41 53° NW 01:10:08 10° NE
FALCON 9 DEB 3.9 01:02:07 21° SSW 01:03:51 37° SSE 01:07:05 10° E
STARLINK-1238 3.5 01:00:50 10° WNW 01:04:57 66° SSW 01:09:04 10° SE
Cosmos 1602 Rocket 3.6 01:01:58 18° SSW 01:05:04 69° WNW 01:09:24 10° N
Cosmos 1825 Rocket 4.2 01:01:14 11° S 01:05:17 50° E 01:09:30 10° NNE
Cosmos 1455 2.1 01:02:04 10° N 01:05:51 88° W 01:09:23 11° S
STARLINK-29 3.2 01:04:34 22° SW 01:06:22 53° SSE 01:09:29 10° ENE
STARLINK-1239 3.9 01:03:04 10° WNW 01:07:13 71° N 01:11:22 10° E
ATLAS 3B R/B 3.5 01:01:39 10° WNW 01:07:22 29° WSW 01:12:42 12° SSW
STARLINK-1201 3.6 01:05:50 10° WNW 01:09:56 62° SSW 01:14:02 10° SE
BREEZE-M DEB (TANK) 3.5 01:09:29 16° SSE 01:09:57 17° SE 01:11:41 10° E
IRS-1D 3.9 01:04:50 10° NNE 01:10:11 66° ESE 01:15:16 11° S
CENTAUR R/B 4.5 01:05:24 10° WNW 01:10:41 19° WSW 01:14:47 13° SW
GP-B 3.1 01:07:24 10° N 01:11:53 85° E 01:16:11 11° S
STARLINK-1240 3.9 01:08:04 10° WNW 01:12:13 73° N 01:16:22 10° E
Meteor 2-1 Rocket 4.4 01:07:45 10° NNW 01:13:05 52° W 01:18:03 12° S
BREEZE-M DEB (TANK) 1.1 01:12:38 16° WSW 01:14:26 59° S 01:16:50 10° E
STARLINK-1206 3.6 01:10:49 10° WNW 01:14:54 59° SSW 01:18:59 10° SE
Cosmos-2242 3.0 01:11:10 10° N 01:15:28 85° E 01:19:43 10° S
STARLINK-1216 3.8 01:13:03 10° WNW 01:17:12 74° NNE 01:21:22 10° E
Cosmos 1745 Rocket 4.4 01:12:45 15° SW 01:17:43 50° WNW 01:23:41 10° N
Cosmos 1400 Rocket 4.1 01:13:47 10° N 01:17:44 43° ENE 01:21:40 10° SE
STARLINK-1205 3.7 01:15:48 10° WNW 01:19:52 56° SSW 01:23:55 10° SE
Cosmos 2181 Rocket 4.1 01:15:34 10° N 01:22:00 84° W 01:28:27 10° S
STARLINK-1237 3.8 01:18:02 10° WNW 01:22:12 76° NNE 01:26:21 10° E
RESURS DK-1 3.1 01:19:17 14° WSW 01:22:39 43° NW 01:26:39 10° NNE
SL-08 R/B 3.5 01:17:58 10° SSE 01:22:39 76° ENE 01:27:18 10° NNW
Cosmos 2227 Rocket 2.3 01:18:15 10° NW 01:23:51 61° WSW 01:29:24 10° SSE
STARLINK-1218 3.7 01:20:47 10° WNW 01:24:49 52° SSW 01:28:51 10° SE
CZ-2D R/B 2.4 01:20:32 10° N 01:25:41 55° WNW 01:30:15 13° SW
STARLINK-1202 3.8 01:23:02 10° WNW 01:27:11 79° NNE 01:31:21 10° ESE
ADEOS II 2.3 01:23:12 10° NNE 01:28:29 72° ESE 01:33:44 10° S
Cosmos 1763 Rocket 3.8 01:23:45 11° S 01:28:40 64° ESE 01:33:42 10° NNE
Cosmos 1697 Rocket 3.5 01:23:35 10° S 01:28:57 46° ESE 01:34:21 10° NE
STARLINK-1254 3.8 01:25:46 10° WNW 01:29:47 49° SSW 01:33:48 10° SE
Cosmos 1703 3.3 01:26:48 11° S 01:30:36 84° E 01:34:35 10° NNE
ATLAS 2AS CENTAUR R/B 3.9 01:25:14 10° WSW 01:32:56 47° NNW 01:40:26 10° NE
STARLINK-1231 3.8 01:30:47 10° WNW 01:34:47 46° SSW 01:38:44 10° SE
Resurs 1-4 Rocket 2.7 01:30:22 10° N 01:35:24 46° WNW 01:40:11 11° SW
STARLINK-1246 3.7 01:32:59 10° WNW 01:37:09 83° NNE 01:41:19 10° ESE
STARLINK-1212 4.4 01:36:37 10° W 01:38:45 17° SW 01:40:53 10° S
STARLINK-1105 4.4 01:37:07 10° W 01:39:13 17° SW 01:41:18 10° S
STARLINK-1232 3.9 01:35:47 10° WNW 01:39:44 43° SSW 01:43:40 10° SE
STARLINK-1247 4.4 01:38:01 10° W 01:40:08 17° SW 01:42:15 10° S
STARLINK-1227 4.4 01:38:30 10° W 01:40:35 17° SW 01:42:38 10° S
ARIANE 5 R/B 3.0 01:35:34 10° NNE 01:40:36 58° E 01:45:33 10° S
STARLINK-1226 4.4 01:39:22 10° W 01:41:26 16° SW 01:43:30 10° S
STARLINK-1224 3.7 01:37:58 10° WNW 01:42:08 86° NNE 01:46:18 10° ESE
STARLINK-1215 4.5 01:40:19 10° W 01:42:22 16° SW 01:44:25 10° S
STARLINK-52 2.9 01:39:41 11° WSW 01:42:46 79° SSE 01:45:59 10° ENE
NPP 4.2 01:37:40 10° N 01:42:49 47° WNW 01:47:57 10° SW
Cosmos 1758 Rocket 3.7 01:39:23 11° SSW 01:43:28 58° WNW 01:47:48 10° N
STARLINK-1208 4.0 01:40:45 10° WNW 01:44:40 41° SSW 01:48:34 10° SE
H-2A R/B 2.5 01:41:03 10° SSE 01:45:21 68° ENE 01:49:46 10° N
Meteor 1-27 4.5 01:40:47 10° N 01:46:23 73° ENE 01:51:56 10° SSE
STARLINK-1225 3.6 01:42:57 10° WNW 01:47:08 89° NNE 01:51:17 10° ESE
Cosmos 1898 Rocket 3.9 01:43:45 10° NW 01:48:49 44° WSW 01:53:50 10° S
STARLINK-1271 4.1 01:45:47 10° WNW 01:49:38 38° SW 01:53:29 10° SE
Lacrosse 4 Rocket 1.5 01:46:42 10° NW 01:51:06 87° SW 01:55:21 10° SSE
STARLINK-1230 3.6 01:47:56 10° WNW 01:52:06 88° S 01:56:15 10° ESE
Starlink 7 placeholder 2.7 01:50:20 10° W 01:52:15 45° N 01:54:12 10° ENE
IDEFIX/ARIANE 42P 3.7 01:48:54 10° NNE 01:53:56 43° E 01:58:55 10° S
Cosmos 1656 3.8 01:48:23 10° SW 01:54:03 75° WNW 01:59:43 10° NNE
SJ 16-02 2.3 01:50:22 10° NW 01:54:13 29° WSW 01:58:03 10° SSW
Cosmos 2285 Rocket 4.1 01:48:03 10° NNW 01:54:22 64° WSW 02:00:36 10° S
STARLINK-1154 4.2 01:50:47 10° WNW 01:54:36 36° SW 01:58:24 10° SSE
CZ-4C R/B 2.6 01:51:06 10° SSW 01:56:01 54° SE 02:01:55 10° NE
Cosmos 2084 4.0 01:52:35 10° WSW 01:56:59 58° NW 02:01:26 10° NE
STARLINK-1243 3.6 01:52:55 10° WNW 01:57:05 85° SSW 02:01:14 10° ESE
Cosmos 468 Rocket 4.1 01:52:31 10° SSW 01:57:38 68° WNW 02:02:46 10° NNE
Cosmos 1937 Rocket 3.8 01:54:05 10° NNW 01:59:07 49° WSW 02:04:09 10° S
Cosmos 1570 Rocket 4.3 01:53:53 10° SSW 01:59:11 74° ESE 02:04:30 10° NNE
STARLINK-1197 4.3 01:55:47 10° W 01:59:32 34° SW 02:03:17 10° SSE
Cosmos 1953 Rocket 3.7 01:55:18 10° SSW 01:59:45 70° WNW 02:04:13 10° N
Uosat 12 SS-18 rocket 4.0 01:57:11 10° NW 02:01:30 83° SW 02:05:58 10° SE
STARLINK-1236 3.6 01:57:54 10° WNW 02:02:04 81° SSW 02:06:12 10° ESE
Cosmos 2208 Rocket 4.4 01:56:54 10° S 02:02:04 66° ESE 02:07:22 10° NNE
COSMOS 2455 4.3 01:57:02 10° W 02:02:16 30° NNW 02:07:31 10° NNE
Cosmos 2369 3.9 01:56:41 10° SSW 02:02:18 75° ESE 02:07:57 10° NNE
NOSS 7 (H) 4.3 01:59:44 10° SSW 02:02:54 64° SE 02:05:50 10° NE
STARLINK-1198 4.3 02:00:46 10° W 02:04:28 31° SW 02:08:08 10° SSE
Cosmos 1842 Rocket 3.8 02:00:33 10° N 02:05:04 78° ENE 02:09:33 10° SSE
STARLINK-1199 4.4 02:05:49 10° W 02:09:27 29° SW 02:13:03 10° SSE
Iridium 2 3.6 02:06:27 10° N 02:10:14 80° W 02:13:59 10° S
